Time,Snow Cover Fraction,Confidence
2023-08-01T05:29:05,0,100.0
2023-08-01T05:44:05,0,100.0
2023-08-01T05:59:05,0,100.0
2023-08-01T06:14:06,0,100.0
2023-08-01T06:29:05,0,100.0
2023-08-01T06:44:06,0,100.0
2023-08-01T06:59:05,0,100.0
2023-08-01T07:14:06,0,100.0
2023-08-01T07:29:06,0,100.0
2023-08-01T07:44:05,0,100.0
2023-08-01T07:59:06,0,100.0
2023-08-01T08:14:06,0,100.0
2023-08-01T08:29:05,0,100.0
2023-08-01T08:44:05,0,100.0
2023-08-01T08:59:05,0,100.0
2023-08-01T09:14:06,0,100.0
2023-08-01T09:29:06,0,100.0
2023-08-01T09:44:05,0,100.0
2023-08-01T09:59:05,0,100.0
2023-08-01T10:14:05,0,100.0
2023-08-01T10:29:05,0,100.0
2023-08-01T10:44:05,0,100.0
2023-08-01T10:59:05,0,100.0
2023-08-01T11:14:05,0,100.0
2023-08-01T11:29:05,0,100.0
2023-08-01T11:44:05,0,100.0
2023-08-01T11:59:05,0,100.0
2023-08-01T12:14:05,0,99.99
2023-08-01T12:29:05,0,99.97
2023-08-01T12:44:05,0,99.96
2023-08-01T12:59:05,0,99.94
2023-08-01T13:14:06,0,99.92
2023-08-01T13:29:05,0,99.89
2023-08-01T13:44:05,0,99.87
2023-08-01T13:59:05,0,99.81
2023-08-01T14:14:06,0,99.54
2023-08-01T14:29:05,0,99.59
2023-08-01T14:44:05,0,99.54
2023-08-01T14:59:05,0,99.34
2023-08-01T15:14:05,0,98.91
2023-08-01T15:29:05,0,98.62
2023-08-01T15:44:05,0,99.36
2023-08-01T15:59:05,0,99.35
2023-08-01T16:14:05,0,99.28
2023-08-01T16:29:05,0,98.78
2023-08-01T16:44:05,0,99.07
2023-08-01T16:59:05,0,99.0
2023-08-01T17:14:05,0,99.01
2023-08-01T17:29:06,0,99.12
2023-08-01T17:44:06,0,99.22
2023-08-01T17:59:05,0,97.48
2023-08-01T18:14:05,0,84.99
2023-08-01T18:29:05,50,69.02
2023-08-01T18:44:05,0,99.9
2023-08-02T05:29:06,0,100.0
2023-08-02T05:44:06,0,100.0
2023-08-02T05:59:05,0,100.0
2023-08-02T06:14:05,0,100.0
2023-08-02T06:29:05,0,100.0
2023-08-02T06:44:05,0,100.0
2023-08-02T06:59:05,0,100.0
2023-08-02T07:14:05,0,100.0
2023-08-02T07:29:05,0,100.0
2023-08-02T07:44:05,0,100.0
2023-08-02T07:59:06,0,100.0
2023-08-02T08:14:06,0,100.0
2023-08-02T08:29:05,0,100.0
2023-08-02T08:44:05,0,99.99
2023-08-02T08:59:05,0,100.0
2023-08-02T09:14:05,0,100.0
2023-08-02T09:29:05,0,100.0
2023-08-02T09:44:06,0,100.0
2023-08-02T09:59:05,0,100.0
2023-08-02T10:14:05,0,100.0
2023-08-02T10:29:05,0,100.0
2023-08-02T10:44:05,0,100.0
2023-08-02T10:59:05,0,100.0
2023-08-02T11:14:05,0,100.0
2023-08-02T11:29:05,0,100.0
2023-08-02T11:44:05,0,100.0
2023-08-02T11:59:05,0,100.0
2023-08-02T12:14:06,0,100.0
2023-08-02T12:29:05,0,99.99
2023-08-02T12:44:05,0,99.97
2023-08-02T12:59:05,0,99.97
2023-08-02T13:14:05,0,99.95
2023-08-02T13:29:05,0,99.93
2023-08-02T13:44:05,0,99.92
2023-08-02T13:59:05,0,99.78
2023-08-02T14:14:05,0,99.9
2023-08-02T14:29:06,0,99.9
2023-08-02T14:44:05,0,99.88
2023-08-02T14:59:05,0,99.84
2023-08-02T15:14:05,0,99.9
2023-08-02T15:29:06,0,99.82
2023-08-02T15:44:05,0,99.64
2023-08-02T15:59:05,0,99.13
2023-08-02T16:14:05,0,99.7
2023-08-02T16:29:05,0,99.27
2023-08-02T16:44:05,0,99.54
2023-08-02T16:59:05,0,99.34
2023-08-02T17:14:05,0,99.53
2023-08-02T17:29:05,0,99.46
2023-08-02T17:44:05,0,99.22
2023-08-02T17:59:05,0,98.64
2023-08-02T18:14:05,0,91.37
2023-08-02T18:29:05,50,67.57
2023-08-02T18:44:05,0,99.87
2023-08-03T05:29:05,0,100.0
2023-08-03T05:44:05,0,100.0
2023-08-03T05:59:05,0,100.0
2023-08-03T06:14:05,0,100.0
2023-08-03T06:29:05,0,100.0
2023-08-03T06:44:05,0,100.0
2023-08-03T06:59:05,0,100.0
2023-08-03T07:14:05,0,100.0
2023-08-03T07:29:06,0,100.0
2023-08-03T07:44:05,0,100.0
2023-08-03T07:59:05,0,100.0
2023-08-03T08:14:05,0,100.0
2023-08-03T08:29:06,0,100.0
2023-08-03T08:44:05,0,99.98
2023-08-03T08:59:05,0,100.0
2023-08-03T09:14:05,0,100.0
2023-08-03T09:29:05,0,100.0
2023-08-03T09:44:05,0,100.0
2023-08-03T09:59:05,0,100.0
2023-08-03T10:14:05,0,100.0
2023-08-03T10:29:05,0,100.0
2023-08-03T10:44:05,0,100.0
2023-08-03T10:59:05,0,100.0
2023-08-03T11:14:05,0,100.0
2023-08-03T11:29:05,0,100.0
2023-08-03T11:44:05,0,100.0
2023-08-03T11:59:05,0,100.0
2023-08-03T12:14:06,0,99.99
2023-08-03T12:29:05,0,99.99
2023-08-03T12:44:05,0,99.99
2023-08-03T12:59:06,0,99.97
2023-08-03T13:14:05,0,99.97
2023-08-03T13:29:05,0,99.97
2023-08-03T13:44:05,0,99.95
2023-08-03T13:59:05,0,99.92
2023-08-03T14:14:05,0,99.87
2023-08-03T14:29:05,0,99.75
2023-08-03T14:44:06,0,99.9
2023-08-03T14:59:05,0,99.82
2023-08-03T15:14:05,0,99.72
2023-08-03T15:29:05,0,99.69
2023-08-03T15:44:05,0,99.34
2023-08-03T15:59:05,0,99.98
2023-08-03T16:14:06,0,99.65
2023-08-03T16:29:05,0,99.84
2023-08-03T16:44:05,0,99.98
2023-08-03T16:59:06,0,99.83
2023-08-03T17:14:05,0,99.92
2023-08-03T17:29:05,0,98.41
2023-08-03T17:44:05,0,97.12
2023-08-03T17:59:06,0,98.23
2023-08-03T18:14:05,0,99.99
2023-08-03T18:29:05,0,99.99
2023-08-03T18:44:05,0,94.94
2023-08-04T05:29:05,0,100.0
2023-08-04T05:44:05,0,100.0
2023-08-04T05:59:05,0,100.0
2023-08-04T06:14:05,0,100.0
2023-08-04T06:29:05,0,100.0
2023-08-04T06:44:05,0,100.0
2023-08-04T06:59:05,0,100.0
2023-08-04T07:14:05,0,100.0
2023-08-04T07:29:05,0,100.0
2023-08-04T07:44:05,0,100.0
2023-08-04T07:59:05,0,99.99
2023-08-04T08:14:06,0,100.0
2023-08-04T08:29:05,0,100.0
2023-08-04T08:44:06,0,100.0
2023-08-04T08:59:05,0,100.0
2023-08-04T09:14:05,0,100.0
2023-08-04T09:29:05,0,100.0
2023-08-04T09:44:05,0,100.0
2023-08-04T09:59:05,0,100.0
2023-08-04T10:14:05,0,100.0
2023-08-04T10:29:05,0,100.0
2023-08-04T10:44:05,0,100.0
2023-08-04T10:59:05,0,100.0
2023-08-04T11:14:06,0,100.0
2023-08-04T11:29:05,0,100.0
2023-08-04T11:44:05,0,100.0
2023-08-04T11:59:05,0,100.0
2023-08-04T12:14:05,0,100.0
2023-08-04T12:29:05,0,100.0
2023-08-04T12:44:05,0,100.0
2023-08-04T12:59:05,0,100.0
2023-08-04T13:14:05,0,100.0
2023-08-04T13:29:06,0,99.96
2023-08-04T13:44:05,0,99.67
2023-08-04T13:59:05,0,99.94
2023-08-04T14:14:05,0,100.0
2023-08-04T14:29:05,0,100.0
2023-08-04T14:44:05,0,99.96
2023-08-04T14:59:05,0,100.0
2023-08-04T15:14:05,0,99.96
2023-08-04T15:29:06,0,99.99
2023-08-04T15:44:05,0,99.99
2023-08-04T15:59:05,0,100.0
2023-08-04T16:14:05,0,99.99
2023-08-04T16:29:05,0,99.99
2023-08-04T16:44:05,0,99.99
2023-08-04T16:59:05,0,99.99
2023-08-04T17:14:06,0,99.99
2023-08-04T17:29:05,0,100.0
2023-08-04T17:44:05,0,100.0
2023-08-04T17:59:05,0,99.98
2023-08-04T18:14:05,0,99.96
2023-08-04T18:29:05,0,99.97
2023-08-04T18:44:05,0,99.97
2023-08-05T05:29:05,0,100.0
2023-08-05T05:44:05,0,100.0
2023-08-05T05:59:05,0,100.0
2023-08-05T06:14:05,0,100.0
2023-08-05T06:29:06,0,100.0
2023-08-05T06:44:05,0,100.0
2023-08-05T06:59:05,0,100.0
2023-08-05T07:14:05,0,99.99
2023-08-05T07:29:05,0,99.98
2023-08-05T07:44:05,0,99.94
2023-08-05T07:59:05,0,99.97
2023-08-05T08:14:05,0,99.99
2023-08-05T08:29:05,0,99.99
2023-08-05T08:44:05,0,100.0
2023-08-05T08:59:05,0,100.0
2023-08-05T09:14:05,0,100.0
2023-08-05T09:29:05,0,99.99
2023-08-05T09:44:05,0,100.0
2023-08-05T09:59:06,0,100.0
2023-08-05T10:14:05,0,100.0
2023-08-05T10:29:06,0,100.0
2023-08-05T10:44:05,0,100.0
2023-08-05T10:59:05,0,100.0
2023-08-05T11:14:05,0,100.0
2023-08-05T11:29:05,0,100.0
2023-08-05T11:44:05,0,100.0
2023-08-05T11:59:06,0,99.99
2023-08-05T12:14:06,0,99.46
2023-08-05T12:29:05,0,100.0
2023-08-05T12:44:05,0,100.0
2023-08-05T12:59:05,0,99.99
2023-08-05T13:14:06,0,99.99
2023-08-05T13:29:05,0,99.66
2023-08-05T13:44:05,0,99.92
2023-08-05T13:59:05,0,99.58
2023-08-05T14:14:05,0,99.99
2023-08-05T14:29:05,0,99.96
2023-08-05T14:44:05,0,99.95
2023-08-05T14:59:05,0,99.99
2023-08-05T15:14:05,0,99.93
2023-08-05T15:29:06,0,99.93
2023-08-05T15:44:05,0,100.0
2023-08-05T15:59:05,0,100.0
2023-08-05T16:14:05,0,100.0
2023-08-05T16:29:05,0,100.0
2023-08-05T16:44:06,0,100.0
2023-08-05T16:59:05,0,100.0
2023-08-05T17:14:05,0,100.0
2023-08-05T17:29:05,0,100.0
2023-08-05T17:44:06,0,100.0
2023-08-05T17:59:05,0,100.0
2023-08-05T18:14:05,0,100.0
2023-08-05T18:29:06,0,100.0
2023-08-05T18:44:05,0,100.0
2023-08-06T05:29:06,0,100.0
2023-08-06T05:44:05,0,100.0
2023-08-06T05:59:05,0,100.0
2023-08-06T06:14:05,0,100.0
2023-08-06T06:29:06,0,100.0
2023-08-06T06:44:05,0,100.0
2023-08-06T06:59:05,0,100.0
2023-08-06T07:14:05,0,100.0
2023-08-06T07:29:05,0,100.0
2023-08-06T07:44:06,0,100.0
2023-08-06T07:59:05,0,100.0
2023-08-06T08:14:05,0,100.0
2023-08-06T08:29:05,0,100.0
2023-08-06T08:44:05,0,100.0
2023-08-06T08:59:05,0,100.0
2023-08-06T09:14:05,0,100.0
2023-08-06T09:29:05,0,100.0
2023-08-06T09:44:05,0,100.0
2023-08-06T09:59:06,0,100.0
2023-08-06T10:14:05,0,100.0
2023-08-06T10:29:05,0,100.0
2023-08-06T10:44:05,0,100.0
2023-08-06T10:59:06,0,100.0
2023-08-06T11:14:05,0,100.0
2023-08-06T11:29:05,0,100.0
2023-08-06T11:44:06,0,100.0
2023-08-06T11:59:05,0,100.0
2023-08-06T12:14:06,0,100.0
2023-08-06T12:29:05,0,100.0
2023-08-06T12:44:06,0,100.0
2023-08-06T12:59:05,0,99.99
2023-08-06T13:14:05,0,99.99
2023-08-06T13:29:06,0,100.0
2023-08-06T13:44:06,0,100.0
2023-08-06T13:59:05,0,100.0
2023-08-06T14:14:05,0,100.0
2023-08-06T14:29:05,0,100.0
2023-08-06T14:44:05,0,100.0
2023-08-06T14:59:06,0,100.0
2023-08-06T15:14:05,0,99.94
2023-08-06T15:29:05,0,99.87
2023-08-06T15:44:05,0,98.89
2023-08-06T15:59:05,0,99.76
2023-08-06T16:14:05,0,99.7
2023-08-06T16:29:05,0,99.92
2023-08-06T16:44:06,0,99.93
2023-08-06T16:59:05,0,99.88
2023-08-06T17:14:05,0,99.78
2023-08-06T17:29:05,0,99.21
2023-08-06T17:44:05,0,98.67
2023-08-06T17:59:05,0,100.0
2023-08-06T18:14:05,0,100.0
2023-08-06T18:29:05,0,93.81
2023-08-06T18:44:05,0,97.54
2023-08-07T05:29:05,0,100.0
2023-08-07T05:44:05,0,99.99
2023-08-07T05:59:05,0,100.0
2023-08-07T06:14:05,0,100.0
2023-08-07T06:29:05,0,100.0
2023-08-07T06:44:06,0,100.0
2023-08-07T06:59:05,0,100.0
2023-08-07T07:14:06,0,100.0
2023-08-07T07:29:05,0,100.0
2023-08-07T07:44:05,0,100.0
2023-08-07T07:59:05,0,100.0
2023-08-07T08:14:06,0,100.0
2023-08-07T08:29:05,0,100.0
2023-08-07T08:44:05,0,100.0
2023-08-07T08:59:05,0,100.0
2023-08-07T09:14:05,0,100.0
2023-08-07T09:29:05,0,100.0
2023-08-07T09:44:05,0,100.0
2023-08-07T09:59:05,0,100.0
2023-08-07T10:14:06,0,100.0
2023-08-07T10:29:05,0,100.0
2023-08-07T10:44:05,0,100.0
2023-08-07T10:59:06,0,100.0
2023-08-07T11:14:05,0,100.0
2023-08-07T11:29:05,0,100.0
2023-08-07T11:44:05,0,100.0
2023-08-07T11:59:06,0,100.0
2023-08-07T12:14:05,0,100.0
2023-08-07T12:29:05,0,100.0
2023-08-07T12:44:06,0,99.99
2023-08-07T12:59:05,0,99.99
2023-08-07T13:14:06,0,100.0
2023-08-07T13:29:05,0,100.0
2023-08-07T13:44:05,0,100.0
2023-08-07T13:59:05,0,100.0
2023-08-07T14:14:05,0,100.0
2023-08-07T14:29:05,0,100.0
2023-08-07T14:44:05,0,100.0
2023-08-07T14:59:06,0,100.0
2023-08-07T15:14:05,0,99.97
2023-08-07T15:29:05,0,99.99
2023-08-07T15:44:05,0,99.99
2023-08-07T15:59:05,0,99.98
2023-08-07T16:14:05,0,100.0
2023-08-07T16:29:05,0,99.81
2023-08-07T16:44:05,0,99.64
2023-08-07T16:59:05,0,97.18
2023-08-07T17:14:05,0,100.0
2023-08-07T17:29:06,0,96.32
2023-08-07T17:44:05,0,97.95
2023-08-07T17:59:06,0,100.0
2023-08-07T18:14:05,0,100.0
2023-08-07T18:29:05,0,100.0
2023-08-07T18:44:05,0,100.0
2023-08-08T05:29:05,0,100.0
2023-08-08T05:44:05,0,100.0
2023-08-08T05:59:05,0,100.0
2023-08-08T06:14:05,0,100.0
2023-08-08T06:29:05,0,100.0
2023-08-08T06:44:06,0,100.0
2023-08-08T06:59:05,0,100.0
2023-08-08T07:14:06,0,100.0
2023-08-08T07:29:05,0,100.0
2023-08-08T07:44:05,0,100.0
2023-08-08T07:59:05,0,100.0
2023-08-08T08:14:06,0,100.0
2023-08-08T08:29:05,0,100.0
2023-08-08T08:44:05,0,100.0
2023-08-08T08:59:06,0,100.0
2023-08-08T09:14:05,0,100.0
2023-08-08T09:29:05,0,100.0
2023-08-08T09:44:05,0,100.0
2023-08-08T09:59:05,0,100.0
2023-08-08T10:14:06,0,100.0
2023-08-08T10:29:05,0,100.0
2023-08-08T10:44:05,0,100.0
2023-08-08T10:59:06,0,100.0
2023-08-08T11:14:05,0,100.0
2023-08-08T11:29:05,0,100.0
2023-08-08T11:44:05,0,100.0
2023-08-08T11:59:05,0,100.0
2023-08-08T12:14:06,0,100.0
2023-08-08T12:29:05,0,100.0
2023-08-08T12:44:06,0,100.0
2023-08-08T12:59:05,0,100.0
2023-08-08T13:14:06,0,99.99
2023-08-08T13:29:05,0,100.0
2023-08-08T13:44:05,0,100.0
2023-08-08T13:59:06,0,100.0
2023-08-08T14:14:05,0,99.99
2023-08-08T14:29:05,0,99.99
2023-08-08T14:44:06,0,99.96
2023-08-08T14:59:05,0,99.93
2023-08-08T15:14:05,0,99.94
2023-08-08T15:29:05,0,99.99
2023-08-08T15:44:05,0,100.0
2023-08-08T15:59:05,0,99.88
2023-08-08T16:14:05,0,99.93
2023-08-08T16:29:06,0,99.84
2023-08-08T16:44:06,0,100.0
2023-08-08T16:59:06,0,99.8
2023-08-08T17:14:06,0,99.62
2023-08-08T17:29:05,0,99.56
2023-08-08T17:44:05,0,99.24
2023-08-08T17:59:05,0,94.86
2023-08-08T18:14:05,0,77.08
2023-08-08T18:29:05,0,99.97
2023-08-08T18:44:05,0,99.59
2023-08-09T05:29:05,0,100.0
2023-08-09T05:44:05,0,100.0
2023-08-09T05:59:05,0,100.0
2023-08-09T06:14:05,0,100.0
2023-08-09T06:29:05,0,100.0
2023-08-09T06:44:06,0,100.0
2023-08-09T06:59:05,0,100.0
2023-08-09T07:14:05,0,100.0
2023-08-09T07:29:05,0,100.0
2023-08-09T07:44:05,0,100.0
2023-08-09T07:59:05,0,100.0
2023-08-09T08:14:05,0,100.0
2023-08-09T08:29:05,0,100.0
2023-08-09T08:44:05,0,100.0
2023-08-09T08:59:05,0,100.0
2023-08-09T09:14:05,0,100.0
2023-08-09T09:29:05,0,100.0
2023-08-09T09:44:05,0,100.0
2023-08-09T09:59:05,0,100.0
2023-08-09T10:14:05,0,100.0
2023-08-09T10:29:05,0,100.0
2023-08-09T10:44:05,0,99.99
2023-08-09T10:59:05,0,100.0
2023-08-09T11:14:05,0,100.0
2023-08-09T11:29:05,0,100.0
2023-08-09T11:44:05,0,100.0
2023-08-09T11:59:05,0,100.0
2023-08-09T12:14:05,0,99.61
2023-08-09T12:29:05,0,99.99
2023-08-09T12:44:05,0,100.0
2023-08-09T12:59:06,0,99.96
2023-08-09T13:14:06,0,100.0
2023-08-09T13:29:05,0,99.98
2023-08-09T13:44:05,0,99.99
2023-08-09T13:59:05,0,100.0
2023-08-09T14:14:06,0,99.96
2023-08-09T14:29:05,0,99.84
2023-08-09T14:44:05,0,99.94
2023-08-09T14:59:05,0,99.91
2023-08-09T15:14:05,0,99.95
2023-08-09T15:29:06,0,99.87
2023-08-09T15:44:06,0,99.86
2023-08-09T15:59:05,0,100.0
2023-08-09T16:14:05,0,100.0
2023-08-09T16:29:05,0,99.89
2023-08-09T16:44:05,0,100.0
2023-08-09T16:59:05,0,100.0
2023-08-09T17:14:05,0,99.3
2023-08-09T17:29:05,0,99.88
2023-08-09T17:44:05,0,99.86
2023-08-09T17:59:05,0,99.68
2023-08-09T18:14:05,0,97.46
2023-08-09T18:29:05,0,56.68
2023-08-09T18:44:05,50,60.33
2023-08-10T05:29:05,0,100.0
2023-08-10T05:44:06,0,100.0
2023-08-10T05:59:05,0,100.0
2023-08-10T06:14:06,0,100.0
2023-08-10T06:29:05,0,100.0
2023-08-10T06:44:05,0,100.0
2023-08-10T06:59:05,0,100.0
2023-08-10T07:14:06,0,100.0
2023-08-10T07:29:05,0,100.0
2023-08-10T07:44:06,0,100.0
2023-08-10T07:59:05,0,100.0
2023-08-10T08:14:05,0,100.0
2023-08-10T08:29:05,0,100.0
2023-08-10T08:44:06,0,100.0
2023-08-10T08:59:05,0,100.0
2023-08-10T09:14:05,0,100.0
2023-08-10T09:29:05,0,100.0
2023-08-10T09:44:05,0,100.0
2023-08-10T09:59:05,0,100.0
2023-08-10T10:14:05,0,100.0
2023-08-10T10:29:05,0,100.0
2023-08-10T10:44:05,0,100.0
2023-08-10T10:59:05,0,100.0
2023-08-10T11:14:05,0,100.0
2023-08-10T11:29:06,0,100.0
2023-08-10T11:44:06,0,100.0
2023-08-10T11:59:05,0,100.0
2023-08-10T12:14:06,0,100.0
2023-08-10T12:29:05,0,100.0
2023-08-10T12:44:05,0,100.0
2023-08-10T12:59:06,0,100.0
2023-08-10T13:14:06,0,99.99
2023-08-10T13:29:05,0,99.97
2023-08-10T13:44:06,0,99.98
2023-08-10T13:59:05,0,99.97
2023-08-10T14:14:05,0,99.97
2023-08-10T14:29:05,0,99.97
2023-08-10T14:44:05,0,99.99
2023-08-10T14:59:06,0,99.96
2023-08-10T15:14:05,0,99.96
2023-08-10T15:29:05,0,99.94
2023-08-10T15:44:05,0,99.94
2023-08-10T15:59:06,0,99.97
2023-08-10T16:14:05,0,99.89
2023-08-10T16:29:05,0,99.92
2023-08-10T16:44:05,0,99.94
2023-08-10T16:59:05,0,99.91
2023-08-10T17:14:06,0,99.91
2023-08-10T17:29:05,0,99.91
2023-08-10T17:44:05,0,99.85
2023-08-10T17:59:06,0,99.74
2023-08-10T18:14:06,0,98.41
2023-08-10T18:29:06,0,83.28
2023-08-10T18:44:05,0,99.7
2023-08-11T05:29:05,0,100.0
2023-08-11T05:44:06,0,100.0
2023-08-11T05:59:05,0,100.0
2023-08-11T06:14:06,0,100.0
2023-08-11T06:29:05,0,100.0
2023-08-11T06:44:05,0,100.0
2023-08-11T06:59:05,0,100.0
2023-08-11T07:14:05,0,100.0
2023-08-11T07:29:06,0,100.0
2023-08-11T07:44:05,0,100.0
2023-08-11T07:59:05,0,100.0
2023-08-11T08:14:05,0,100.0
2023-08-11T08:29:05,0,100.0
2023-08-11T08:44:05,0,100.0
2023-08-11T08:59:05,0,95.7
2023-08-11T09:14:05,0,100.0
2023-08-11T09:29:05,0,100.0
2023-08-11T09:44:05,0,100.0
2023-08-11T09:59:05,0,100.0
2023-08-11T10:14:05,0,100.0
2023-08-11T10:29:05,0,100.0
2023-08-11T10:44:05,0,100.0
2023-08-11T10:59:05,0,100.0
2023-08-11T11:14:05,0,100.0
2023-08-11T11:29:06,0,100.0
2023-08-11T11:44:06,0,100.0
2023-08-11T11:59:06,0,100.0
2023-08-11T12:14:05,0,100.0
2023-08-11T12:29:06,0,100.0
2023-08-11T12:44:05,0,99.99
2023-08-11T12:59:06,0,100.0
2023-08-11T13:14:06,0,100.0
2023-08-11T13:29:06,0,100.0
2023-08-11T13:44:06,0,99.98
2023-08-11T13:59:05,0,99.98
2023-08-11T14:14:05,0,99.98
2023-08-11T14:29:06,0,100.0
2023-08-11T14:44:06,0,99.97
2023-08-11T14:59:06,0,99.99
2023-08-11T15:14:05,0,99.98
2023-08-11T15:29:06,0,99.99
2023-08-11T15:44:05,0,99.98
2023-08-11T15:59:05,0,99.98
2023-08-11T16:14:05,0,99.98
2023-08-11T16:29:05,0,84.1
2023-08-11T16:44:06,0,89.71
2023-08-11T16:59:05,50,95.56
2023-08-11T17:14:05,0,76.31
2023-08-11T17:29:05,0,76.21
2023-08-11T17:44:05,0,88.31
2023-08-11T17:59:05,0,90.21
2023-08-11T18:14:06,0,78.41
2023-08-11T18:29:05,50,99.89
2023-08-11T18:44:05,50,99.65
2023-08-12T05:29:05,0,99.16
2023-08-12T05:44:05,0,98.88
2023-08-12T05:59:05,0,95.06
2023-08-12T06:14:05,0,86.69
2023-08-12T06:29:06,0,97.47
2023-08-12T06:44:05,0,96.72
2023-08-12T06:59:05,0,92.91
2023-08-12T07:14:05,0,94.91
2023-08-12T07:29:05,0,98.7
2023-08-12T07:44:05,0,97.9
2023-08-12T07:59:05,0,96.37
2023-08-12T08:14:05,0,94.31
2023-08-12T08:29:05,0,96.01
2023-08-12T08:44:05,0,86.65
2023-08-12T08:59:05,50,99.9
2023-08-12T09:14:05,50,98.39
2023-08-12T09:29:05,50,99.64
2023-08-12T09:44:05,50,98.29
2023-08-12T09:59:05,50,98.92
2023-08-12T10:14:05,50,98.63
2023-08-12T10:29:05,50,97.48
2023-08-12T10:44:05,50,75.84
2023-08-12T10:59:05,0,51.7
2023-08-12T11:14:05,50,84.02
2023-08-12T11:29:05,50,85.43
2023-08-12T11:44:05,50,90.3
2023-08-12T11:59:05,50,83.68
2023-08-12T12:14:06,50,83.35
2023-08-12T12:29:05,50,86.32
2023-08-12T12:44:05,50,90.02
2023-08-12T12:59:05,50,75.26
2023-08-12T13:14:05,50,73.41
2023-08-12T13:29:05,50,72.24
2023-08-12T13:44:05,50,56.26
2023-08-12T13:59:05,50,72.85
2023-08-12T14:14:05,50,71.25
2023-08-12T14:29:05,50,85.16
2023-08-12T14:44:05,50,76.46
2023-08-12T14:59:05,50,78.08
2023-08-12T15:14:06,50,69.24
2023-08-12T15:29:06,0,57.8
2023-08-12T15:44:05,50,52.73
2023-08-12T15:59:05,0,59.73
2023-08-12T16:14:05,0,59.25
2023-08-12T16:29:05,0,62.97
2023-08-12T16:44:05,0,58.33
2023-08-12T16:59:05,0,64.35
2023-08-12T17:14:05,0,76.84
2023-08-12T17:29:05,0,67.61
2023-08-12T17:44:05,0,71.61
2023-08-12T17:59:06,0,69.89
2023-08-12T18:14:05,50,93.39
2023-08-12T18:29:05,50,99.77
2023-08-12T18:44:05,50,57.69
2023-08-13T05:29:05,0,99.17
2023-08-13T05:44:05,0,99.58
2023-08-13T05:59:05,0,99.58
2023-08-13T06:14:05,0,99.84
2023-08-13T06:29:05,0,99.82
2023-08-13T06:44:05,0,99.82
2023-08-13T06:59:05,0,99.91
2023-08-13T07:14:05,0,99.92
2023-08-13T07:29:05,0,99.87
2023-08-13T07:44:05,0,99.92
2023-08-13T07:59:05,0,99.83
2023-08-13T08:14:05,0,99.82
2023-08-13T08:29:05,0,99.83
2023-08-13T08:44:05,0,99.68
2023-08-13T08:59:05,50,79.99
2023-08-13T09:14:05,0,58.01
2023-08-13T09:29:05,0,79.97
2023-08-13T09:44:05,0,62.34
2023-08-13T09:59:05,50,54.56
2023-08-13T10:14:05,50,55.3
2023-08-13T10:29:06,50,67.84
2023-08-13T10:44:06,50,68.89
2023-08-13T10:59:05,50,67.78
2023-08-13T11:14:05,50,71.25
2023-08-13T11:29:05,0,50.55
2023-08-13T11:44:05,50,78.21
2023-08-13T11:59:05,50,82.75
2023-08-13T12:14:05,0,61.58
2023-08-13T12:29:05,50,80.82
2023-08-13T12:44:06,50,77.31
2023-08-13T12:59:05,50,70.08
2023-08-13T13:14:05,50,70.37
2023-08-13T13:29:05,50,52.23
2023-08-13T13:44:06,0,51.42
2023-08-13T13:59:05,0,55.86
2023-08-13T14:14:05,0,70.5
2023-08-13T14:29:05,0,77.02
2023-08-13T14:44:05,0,64.72
2023-08-13T14:59:05,0,55.69
2023-08-13T15:14:05,50,62.15
2023-08-13T15:29:05,0,54.77
2023-08-13T15:44:05,50,54.57
2023-08-13T15:59:05,0,72.87
2023-08-13T16:14:05,0,75.17
2023-08-13T16:29:05,0,78.76
2023-08-13T16:44:05,0,85.05
2023-08-13T16:59:06,0,71.68
2023-08-13T17:14:05,0,82.73
2023-08-13T17:29:05,0,85.94
2023-08-13T17:44:06,0,85.45
2023-08-13T17:59:05,0,86.63
2023-08-13T18:14:06,0,98.2
2023-08-13T18:29:06,50,78.23
2023-08-13T18:44:05,0,68.02
2023-08-14T05:29:05,0,99.57
2023-08-14T05:44:05,0,99.7
2023-08-14T05:59:05,0,99.75
2023-08-14T06:14:06,0,99.91
2023-08-14T06:29:05,0,99.89
2023-08-14T06:44:05,0,99.87
2023-08-14T06:59:06,0,99.9
2023-08-14T07:14:05,0,99.89
2023-08-14T07:29:05,0,99.91
2023-08-14T07:44:05,0,99.94
2023-08-14T07:59:05,0,99.86
2023-08-14T08:14:05,0,99.87
2023-08-14T08:29:05,0,99.83
2023-08-14T08:44:05,0,99.8
2023-08-14T08:59:05,0,61.11
2023-08-14T09:14:05,50,68.85
2023-08-14T09:29:06,0,64.3
2023-08-14T09:44:06,0,57.58
2023-08-14T09:59:05,50,55.61
2023-08-14T10:14:05,50,68.64
2023-08-14T10:29:05,50,72.25
2023-08-14T10:44:05,50,74.37
2023-08-14T10:59:06,50,72.27
2023-08-14T11:14:05,50,72.81
2023-08-14T11:29:05,50,72.53
2023-08-14T11:44:06,0,73.1
2023-08-14T11:59:06,0,77.84
2023-08-14T12:14:05,50,72.75
2023-08-14T12:29:05,0,79.61
2023-08-14T12:44:05,50,59.15
2023-08-14T12:59:06,50,54.34
2023-08-14T13:14:05,50,52.55
2023-08-14T13:29:05,0,58.14
2023-08-14T13:44:05,0,62.59
2023-08-14T13:59:05,0,63.96
2023-08-14T14:14:06,0,68.54
2023-08-14T14:29:05,0,73.39
2023-08-14T14:44:05,0,70.6
2023-08-14T14:59:05,0,72.0
2023-08-14T15:14:05,0,59.54
2023-08-14T15:29:05,0,69.25
2023-08-14T15:44:05,0,65.53
2023-08-14T15:59:05,0,68.05
2023-08-14T16:14:05,0,76.33
2023-08-14T16:29:06,0,80.63
2023-08-14T16:44:05,0,80.91
2023-08-14T16:59:05,0,84.72
2023-08-14T17:14:05,0,87.75
2023-08-14T17:29:05,0,89.98
2023-08-14T17:44:05,0,89.43
2023-08-14T17:59:05,0,87.36
2023-08-14T18:14:06,0,98.75
2023-08-14T18:29:05,50,88.08
2023-08-14T18:44:05,0,79.47
2023-08-15T05:29:05,0,98.76
2023-08-15T05:44:05,0,99.55
2023-08-15T05:59:05,0,99.78
2023-08-15T06:14:05,0,99.78
2023-08-15T06:29:05,0,99.93
2023-08-15T06:44:05,0,99.89
2023-08-15T06:59:06,0,99.88
2023-08-15T07:14:05,0,99.96
2023-08-15T07:29:05,0,99.95
2023-08-15T07:44:05,0,99.96
2023-08-15T07:59:05,0,99.92
2023-08-15T08:14:05,0,99.93
2023-08-15T08:29:06,0,99.93
2023-08-15T08:44:05,0,99.9
2023-08-15T08:59:06,0,96.42
2023-08-15T09:14:05,0,67.4
2023-08-15T09:29:05,0,87.6
2023-08-15T09:44:06,0,86.56
2023-08-15T09:59:05,0,76.77
2023-08-15T10:14:05,0,70.97
2023-08-15T10:29:05,0,66.93
2023-08-15T10:44:05,0,65.38
2023-08-15T10:59:05,0,64.08
2023-08-15T11:14:05,0,64.54
2023-08-15T11:29:05,0,73.64
2023-08-15T11:44:05,0,75.54
2023-08-15T11:59:05,0,75.02
2023-08-15T12:14:05,0,83.83
2023-08-15T12:29:05,0,85.16
2023-08-15T12:44:05,0,89.8
2023-08-15T12:59:05,50,55.38
2023-08-15T13:14:05,50,52.96
2023-08-15T13:29:06,0,65.23
2023-08-15T13:44:06,0,61.87
2023-08-15T13:59:06,0,64.36
2023-08-15T14:14:05,0,68.51
2023-08-15T14:29:05,0,72.56
2023-08-15T14:44:05,0,73.45
2023-08-15T14:59:05,0,71.12
2023-08-15T15:14:05,0,64.63
2023-08-15T15:29:05,0,65.23
2023-08-15T15:44:05,0,51.24
2023-08-15T15:59:05,0,75.49
2023-08-15T16:14:05,0,65.43
2023-08-15T16:29:05,0,71.79
2023-08-15T16:44:05,0,73.04
2023-08-15T16:59:05,50,64.1
2023-08-15T17:14:06,50,61.81
2023-08-15T17:29:05,50,74.01
2023-08-15T17:44:05,50,89.48
2023-08-15T17:59:05,50,88.13
2023-08-15T18:14:06,50,71.96
2023-08-15T18:29:05,50,98.16
2023-08-15T18:44:06,50,87.44
2023-08-16T05:29:05,0,98.9
2023-08-16T05:44:05,0,96.84
2023-08-16T05:59:05,0,96.85
2023-08-16T06:14:05,0,96.66
2023-08-16T06:29:06,0,99.47
2023-08-16T06:44:05,0,98.92
2023-08-16T06:59:06,0,96.72
2023-08-16T07:14:05,0,99.74
2023-08-16T07:29:06,0,99.92
2023-08-16T07:44:05,0,99.92
2023-08-16T07:59:06,0,99.95
2023-08-16T08:14:05,0,99.91
2023-08-16T08:29:06,0,99.92
2023-08-16T08:44:05,0,99.85
2023-08-16T08:59:05,0,99.6
2023-08-16T09:14:06,0,73.62
2023-08-16T09:29:05,0,97.96
2023-08-16T09:44:05,0,94.29
2023-08-16T09:59:05,0,91.08
2023-08-16T10:14:06,0,92.37
2023-08-16T10:29:05,0,91.65
2023-08-16T10:44:05,0,95.41
2023-08-16T10:59:05,0,90.61
2023-08-16T11:14:05,0,89.76
2023-08-16T11:29:05,0,90.47
2023-08-16T11:44:05,0,87.52
2023-08-16T11:59:05,0,76.62
2023-08-16T12:14:06,0,89.1
2023-08-16T12:29:06,0,95.67
2023-08-16T12:44:06,0,91.22
2023-08-16T12:59:05,0,92.34
2023-08-16T13:14:06,0,86.45
2023-08-16T13:29:05,0,85.23
2023-08-16T13:44:05,0,89.26
2023-08-16T13:59:05,0,94.79
2023-08-16T14:14:05,0,92.8
2023-08-16T14:29:05,0,79.58
2023-08-16T14:44:05,0,95.07
2023-08-16T14:59:05,0,89.45
2023-08-16T15:14:05,0,92.99
2023-08-16T15:29:05,0,86.69
2023-08-16T15:44:05,0,80.91
2023-08-16T15:59:06,0,65.38
2023-08-16T16:14:05,0,74.78